Weather in Didivshchyna

Ukraine / Kyiv Region     50°09′06″N   29°45′50″E
temp.,
°C
wind,
m/s
gust,
m/s
humid.,
%
clouds,
%
prec.,
mm/h
press.,
hPa
HPBL,
m
15 june, tue
tue1500:00+15ne22915 0.0 101523
03:00+14nne34962 1.8 101555
06:00+15nne34958 0.4 101584
09:00+20n45845 0.5 1015418
12:00+23nne45681 1.2 10141143
15:00+25nne465612 1.2 10132021
18:00+21nnw697651 1.1 1012296
21:00+18nne4108948 1.6 1012217
16 june, wed
wed1600:00+16n4109315 0.2 1013206
03:00+15n5119573 0.2 1013235
06:00+14n411943 0.0 1013266
09:00+19nne59794 0.0 1014484
12:00+23nne676524 0.0 10141298
15:00+24nne675965 0.0 10131650
18:00+23ne58681 0.1 1014960
21:00+18ne4108822 1.8 1015187
17 june, thu
thu1700:00+17nne499389 0.8 1016183
03:00+16nne4109614 1.9 1017222
06:00+16nne499816 0.1 1017236
09:00+21ne598424 0.1 1019584
12:00+24ene686625 0.0 10201374
15:00+25ne78625 0.0 10191683
18:00+24ne69690 0.0 10191036
21:00+20ene511842 0.1 1021416
18 june, fri
fri1800:00+17ne410890 0.0 1021283
03:00+15ne49950 0.0 1021211
06:00+15ne411931 0.0 1022305
09:00+20e588480 0.0 1022662
12:00+23e687590 0.1 10221067
15:00+24e686960 0.1 10221293
18:00+22e597862 0.2 1022800
21:00+19e49887 0.3 1022235
19 june, sat
sat1900:00+17e399463 0.0 1023214
03:00+19e498699 0.1 1023356
06:00+18e498786 0.0 1023341
09:00+20e587884 0.0 1023574
12:00+23e68656 0.0 10221200
15:00+24ese6765100 0.0 10211476
18:00+23ese5874100 0.5 10211014
21:00+20e368999 1.4 1021105